JBU999 KEYW-KFLL

Flight info

Callsign JBU999
Flight time N/A
Altitude 17000
Route BUFTT1 BUFTT PYREX BHHIA3
Aircraft A321/M-SDE3FGHIRWY/LB1

Departure

Time 2026-05-04 21:39
Airport Key West International Airport (KEYW)

Arrival

Time N/A
Airport Fort Lauderdale Hollywood International Airport (KFLL)
Time Latitude Longitude Altitude Speed Heading
2026-05-04 21:19 24.55443 -81.75419 14 ft 0 kts 180°
2026-05-04 21:32 24.55466 -81.75417 14 ft 4 kts 200°
2026-05-04 21:32 24.55486 -81.75401 12 ft 4 kts 246°
2026-05-04 21:32 24.55490 -81.75386 12 ft 0 kts 269°
2026-05-04 21:35 24.55490 -81.75394 12 ft 4 kts 269°
2026-05-04 21:35 24.55490 -81.75449 12 ft 8 kts 270°
2026-05-04 21:35 24.55489 -81.75520 12 ft 10 kts 269°
2026-05-04 21:35 24.55507 -81.75584 13 ft 8 kts 328°
2026-05-04 21:36 24.55528 -81.75590 13 ft 1 kts 327°
2026-05-04 21:36 24.55528 -81.75595 13 ft 1 kts 288°
2026-05-04 21:36 24.55529 -81.75690 13 ft 18 kts 269°
2026-05-04 21:36 24.55528 -81.75839 12 ft 20 kts 269°
2026-05-04 21:37 24.55527 -81.75999 12 ft 22 kts 269°
2026-05-04 21:37 24.55525 -81.76172 12 ft 23 kts 268°
2026-05-04 21:37 24.55523 -81.76355 12 ft 24 kts 269°
2026-05-04 21:37 24.55521 -81.76536 12 ft 16 kts 269°
2026-05-04 21:38 24.55521 -81.76605 12 ft 6 kts 275°
2026-05-04 21:38 24.55542 -81.76649 12 ft 8 kts 317°
2026-05-04 21:38 24.55595 -81.76639 11 ft 9 kts 47°
2026-05-04 21:38 24.55606 -81.76607 11 ft 3 kts 87°
2026-05-04 21:39 24.55606 -81.76477 10 ft 46 kts 91°
2026-05-04 21:39 24.55615 -81.75851 13 ft 117 kts 89°
2026-05-04 21:39 24.55638 -81.74799 270 ft 147 kts 85°
2026-05-04 21:39 24.55915 -81.73674 728 ft 165 kts 60°
2026-05-04 21:40 24.56765 -81.72713 1112 ft 188 kts 31°
2026-05-04 21:40 24.58050 -81.72252 1548 ft 204 kts
2026-05-04 21:40 24.59569 -81.72352 1845 ft 234 kts 355°
2026-05-04 21:40 24.61283 -81.72498 2236 ft 260 kts 355°
2026-05-04 21:41 24.63155 -81.72648 2826 ft 276 kts 355°
2026-05-04 21:41 24.65094 -81.72726 3649 ft 281 kts 358°
2026-05-04 21:41 24.67023 -81.72621 4739 ft 276 kts
2026-05-04 21:41 24.68944 -81.72386 5592 ft 279 kts
2026-05-04 21:42 24.70842 -81.71986 6392 ft 287 kts 17°
2026-05-04 21:42 24.72639 -81.70981 7146 ft 294 kts 32°
2026-05-04 21:42 24.74178 -81.69464 7919 ft 301 kts 45°
2026-05-04 21:42 24.75611 -81.67776 8703 ft 304 kts 44°
2026-05-04 21:43 24.77075 -81.66080 9473 ft 307 kts 44°
2026-05-04 21:43 24.78557 -81.64366 10190 ft 312 kts 43°
2026-05-04 21:43 24.80105 -81.62578 10481 ft 334 kts 43°
2026-05-04 21:43 24.81762 -81.60662 10690 ft 356 kts 44°
2026-05-04 21:44 24.83608 -81.58787 11167 ft 364 kts 33°
2026-05-04 21:44 24.85730 -81.57256 11775 ft 368 kts 28°
2026-05-04 21:44 24.87920 -81.55762 12412 ft 373 kts 27°
2026-05-04 21:44 24.89387 -81.54762 12825 ft 377 kts 27°
2026-05-04 21:45 24.92367 -81.52727 13648 ft 383 kts 27°
2026-05-04 21:45 24.93906 -81.51675 14032 ft 387 kts 27°
2026-05-04 21:45 24.96944 -81.49592 14782 ft 392 kts 27°
2026-05-04 21:45 24.99270 -81.47994 15370 ft 395 kts 27°
2026-05-04 21:46 25.00820 -81.46929 15774 ft 397 kts 27°
2026-05-04 21:46 25.03977 -81.44759 16567 ft 402 kts 26°
2026-05-04 21:46 25.05550 -81.43679 16838 ft 404 kts 26°
2026-05-04 21:46 25.07939 -81.42040 16977 ft 405 kts 26°
2026-05-04 21:47 25.10337 -81.40397 17014 ft 408 kts 26°
2026-05-04 21:47 25.12747 -81.38748 17011 ft 408 kts 26°
2026-05-04 21:47 25.15165 -81.37087 17011 ft 408 kts 26°
2026-05-04 21:47 25.17577 -81.35426 17011 ft 408 kts 26°
2026-05-04 21:48 25.19983 -81.33769 17008 ft 408 kts 26°
2026-05-04 21:48 25.23113 -81.31445 17007 ft 413 kts 34°
2026-05-04 21:48 25.24612 -81.30078 17009 ft 413 kts 35°
2026-05-04 21:48 25.26793 -81.28084 17011 ft 413 kts 35°
2026-05-04 21:49 25.29040 -81.26026 17008 ft 414 kts 35°
2026-05-04 21:49 25.31228 -81.24018 17009 ft 415 kts 35°
2026-05-04 21:49 25.33447 -81.21983 17021 ft 415 kts 35°
2026-05-04 21:49 25.35666 -81.19949 17031 ft 414 kts 35°
2026-05-04 21:50 25.37886 -81.17915 17057 ft 414 kts 35°
2026-05-04 21:50 25.40106 -81.15880 17053 ft 414 kts 35°
2026-05-04 21:50 25.42310 -81.13858 16722 ft 412 kts 35°
2026-05-04 21:50 25.44491 -81.11853 15999 ft 400 kts 35°
2026-05-04 21:51 25.46581 -81.09921 15308 ft 384 kts 35°
2026-05-04 21:51 25.48611 -81.08046 14627 ft 377 kts 35°
2026-05-04 21:51 25.50617 -81.06201 13970 ft 373 kts 35°
2026-05-04 21:51 25.52602 -81.04382 13247 ft 368 kts 35°
2026-05-04 21:52 25.54532 -81.02613 12524 ft 362 kts 36°
2026-05-04 21:52 25.57101 -81.00255 11574 ft 354 kts 36°
2026-05-04 21:52 25.58348 -80.99108 11111 ft 350 kts 36°
2026-05-04 21:52 25.60196 -80.97426 10422 ft 337 kts 33°
2026-05-04 21:53 25.62175 -80.96170 9742 ft 320 kts 18°
2026-05-04 21:53 25.64265 -80.95535 9128 ft 302 kts
2026-05-04 21:53 25.66323 -80.95354 8857 ft 295 kts
2026-05-04 21:53 25.68365 -80.95190 8593 ft 294 kts
2026-05-04 21:54 25.70405 -80.95016 8322 ft 293 kts
2026-05-04 21:54 25.72430 -80.94841 8056 ft 292 kts
2026-05-04 21:54 25.74447 -80.94666 7791 ft 290 kts
2026-05-04 21:54 25.76455 -80.94493 7528 ft 289 kts
2026-05-04 21:55 25.78428 -80.94326 7267 ft 287 kts
2026-05-04 21:55 25.80416 -80.94160 7070 ft 286 kts
2026-05-04 21:55 25.82400 -80.93995 7021 ft 286 kts
2026-05-04 21:55 25.84383 -80.93829 7026 ft 286 kts
2026-05-04 21:56 25.86369 -80.93648 7031 ft 287 kts
2026-05-04 21:56 25.88300 -80.93076 7031 ft 289 kts 21°
2026-05-04 21:56 25.90085 -80.92035 7034 ft 290 kts 27°
2026-05-04 21:56 25.91849 -80.90944 7037 ft 290 kts 27°
2026-05-04 21:57 25.93619 -80.89856 7037 ft 291 kts 27°
2026-05-04 21:57 25.95391 -80.88771 7036 ft 291 kts 27°
2026-05-04 21:57 25.97163 -80.87687 7042 ft 291 kts 26°
2026-05-04 21:57 25.98923 -80.86575 7037 ft 291 kts 33°
2026-05-04 21:58 26.00419 -80.85052 7036 ft 295 kts 51°
2026-05-04 21:58 26.01445 -80.83089 7038 ft 295 kts 69°
2026-05-04 21:58 26.01929 -80.80920 7040 ft 294 kts 81°
2026-05-04 21:58 26.02279 -80.78665 7039 ft 297 kts 80°
2026-05-04 21:59 26.02635 -80.76412 7036 ft 295 kts 80°
2026-05-04 21:59 26.02995 -80.74161 6872 ft 295 kts 80°
2026-05-04 21:59 26.03355 -80.71916 6708 ft 295 kts 80°
2026-05-04 21:59 26.03710 -80.69691 6543 ft 290 kts 80°
2026-05-04 22:00 26.04061 -80.67487 6380 ft 290 kts 80°
2026-05-04 22:00 26.04412 -80.65279 6202 ft 289 kts 80°
2026-05-04 22:00 26.04758 -80.63092 6024 ft 285 kts 80°
2026-05-04 22:00 26.05100 -80.60931 5845 ft 283 kts 80°
2026-05-04 22:01 26.05441 -80.58778 5674 ft 282 kts 80°
2026-05-04 22:01 26.05774 -80.56668 5506 ft 279 kts 80°
2026-05-04 22:01 26.06108 -80.54546 5325 ft 277 kts 80°
2026-05-04 22:01 26.06462 -80.52452 5169 ft 273 kts 76°
2026-05-04 22:02 26.06741 -80.50378 5050 ft 271 kts 86°
2026-05-04 22:02 26.06762 -80.48335 5032 ft 256 kts 90°
2026-05-04 22:02 26.06735 -80.46419 5040 ft 240 kts 89°
2026-05-04 22:02 26.06722 -80.44576 4905 ft 235 kts 90°
2026-05-04 22:03 26.06715 -80.42782 4615 ft 229 kts 89°
2026-05-04 22:03 26.06709 -80.41041 4320 ft 223 kts 88°
2026-05-04 22:03 26.06702 -80.39341 4033 ft 217 kts 88°
2026-05-04 22:03 26.06695 -80.37684 3753 ft 211 kts 88°
2026-05-04 22:04 26.06689 -80.36099 3499 ft 203 kts 89°
2026-05-04 22:04 26.06682 -80.34586 3244 ft 188 kts 88°
2026-05-04 22:04 26.06675 -80.33183 2993 ft 175 kts 88°
2026-05-04 22:04 26.06669 -80.31879 2785 ft 161 kts 88°
2026-05-04 22:05 26.06663 -80.30701 2587 ft 144 kts 87°
2026-05-04 22:05 26.06659 -80.29611 2390 ft 138 kts 87°
2026-05-04 22:05 26.06654 -80.28556 2211 ft 135 kts 86°
2026-05-04 22:05 26.06649 -80.27510 2037 ft 134 kts 85°
2026-05-04 22:06 26.06644 -80.26473 1857 ft 135 kts 87°
2026-05-04 22:06 26.06640 -80.25456 1685 ft 134 kts 86°
2026-05-04 22:06 26.06635 -80.24424 1504 ft 134 kts 86°
2026-05-04 22:06 26.06629 -80.23379 1330 ft 134 kts 86°
2026-05-04 22:07 26.06624 -80.22346 1150 ft 133 kts 84°
2026-05-04 22:07 26.06619 -80.21321 978 ft 132 kts 85°
2026-05-04 22:07 26.06612 -80.20310 812 ft 131 kts 88°
2026-05-04 22:07 26.06593 -80.19291 643 ft 130 kts 88°
2026-05-04 22:08 26.06589 -80.18262 511 ft 133 kts 88°
2026-05-04 22:08 26.06590 -80.17230 328 ft 132 kts 91°
2026-05-04 22:08 26.06587 -80.16213 126 ft 134 kts 91°
2026-05-04 22:08 26.06585 -80.15200 24 ft 120 kts 92°
2026-05-04 22:09 26.06581 -80.14484 43 ft 52 kts 90°